Waarnemingen

Advertentie
Mijn weer
Aachen-Orsbach, Duitsland (10505): temperatuur & dauwpunt: 15.02.2018 14:00:00 - 21.02.2018 14:00:00 (CET)Aachen-Orsbach, Duitsland (10505): temperatuur 5cm & temperatuur -5cm: 15.02.2018 14:00:00 - 21.02.2018 14:00:00 (CET)Aachen-Orsbach, Duitsland (10505): temperatuur -20cm & temperatuur -100cm: 15.02.2018 14:00:00 - 21.02.2018 14:00:00 (CET)Aachen-Orsbach, Duitsland (10505): windsnelheid & windstoten: 15.02.2018 14:00:00 - 21.02.2018 14:00:00 (CET)Aachen-Orsbach, Duitsland (10505): windrichting: 15.02.2018 14:00:00 - 21.02.2018 14:00:00 (CET)Aachen-Orsbach, Duitsland (10505): luchtdruk: 15.02.2018 14:00:00 - 21.02.2018 14:00:00 (CET)Aachen-Orsbach, Duitsland (10505): zicht: 15.02.2018 14:00:00 - 21.02.2018 14:00:00 (CET)Aachen-Orsbach, Duitsland (10505): Zonneschijnduur: 15.02.2018 14:00:00 - 21.02.2018 14:00:00 (CET)Aachen-Orsbach, Duitsland (10505): neerslag: 15.02.2018 14:00:00 - 21.02.2018 14:00:00 (CET)
Datum & Tijd tt [°C] td [°C] tt 5cm [°C] tt -5cm [°C] tt -20cm [°C] tt -100cm [°C] ff [km/u] ff [kn] fx [km/u] fx [kn] dd ppp [hPa] vv [km] sd [min] rr [mm]
21.02.2018 14:00:00 2,5 -2,8 5,6 0,8 1,6 5,1 14 8 25 14 NO 1024,6 4,5 60 0,0
21.02.2018 13:00:00 1,9 -2,9 4,6 0,2 1,7 5,1 15 8 25 14 NNO 1024,8 4,3 60 0,0
21.02.2018 12:00:00 1,0 -4,0 2,5 0,2 1,7 5,1 18 10 26 14 NO 1025,0 - 60 0,0
21.02.2018 11:00:00 0,3 -3,2 1,4 0,2 1,8 5,1 16 9 23 12 ONO 1025,0 3,7 58 0,0
21.02.2018 10:00:00 -0,8 -3,1 -0,6 0,2 1,8 5,1 13 7 18 10 ONO 1025,2 3,3 55 0,0
21.02.2018 09:00:00 -3,0 -3,8 -3,8 0,2 1,9 5,1 8 4 13 7 O 1025,3 1,9 3 0,0
21.02.2018 08:00:00 -3,6 -4,3 -6,3 0,3 1,9 5,1 7 4 13 7 ONO 1025,2 2,1 0 0,0
21.02.2018 07:00:00 -3,4 -4,2 -5,1 0,4 2,0 5,1 10 5 14 8 O 1024,6 1,8 0 0,0
21.02.2018 06:00:00 -3,6 -4,6 -5,5 0,4 2,0 5,2 10 6 18 10 ONO 1024,6 2,0 0 0,0
21.02.2018 05:00:00 -2,8 -4,2 -4,1 0,5 2,1 5,2 9 5 18 10 NO 1024,2 2,5 0 0,0
21.02.2018 04:00:00 -3,0 -4,3 -4,6 0,6 2,2 5,2 11 6 17 9 N 1023,7 2,5 0 0,0
21.02.2018 03:00:00 -2,8 -4,4 -5,0 0,7 2,2 5,2 11 6 16 8 NO 1023,3 2,9 0 0,0
21.02.2018 02:00:00 -2,2 -4,0 -4,3 0,8 2,3 5,2 12 6 16 8 NNO 1023,4 3,2 0 0,0
21.02.2018 01:00:00 -1,7 -3,8 -3,6 0,9 2,4 5,2 11 6 18 10 NNO 1023,2 3,8 0 0,0
21.02.2018 00:00:00 -1,3 -3,6 -3,3 1,0 2,5 5,2 12 6 19 11 NNO 1022,4 4,3 0 0,0
20.02.2018 23:00:00 -0,4 -3,3 -2,2 1,2 2,6 5,2 14 8 22 12 NO 1021,8 5 0 0,0
20.02.2018 22:00:00 0,5 -3,2 -1,4 1,3 2,7 5,2 14 8 21 12 NO 1021,2 6 0 0,0
20.02.2018 21:00:00 1,0 -3,1 -1,0 1,5 2,7 5,2 11 6 19 11 NO 1020,7 7 0 0,0
20.02.2018 20:00:00 1,4 -2,2 -0,6 1,9 2,8 5,2 11 6 20 11 NO 1020,3 7 0 0,0
20.02.2018 19:00:00 1,8 -1,6 -0,1 2,7 2,7 5,2 9 5 16 8 N 1019,6 5 0 0,0
20.02.2018 18:00:00 2,2 -0,8 1,0 3,4 2,6 5,2 11 6 16 9 N 1019,0 4,5 0 0,0
20.02.2018 17:00:00 3,1 -0,8 2,7 4,2 2,5 5,2 9 5 18 10 NO 1018,3 4,5 0 0,0
20.02.2018 16:00:00 3,4 -1,7 4,0 4,7 2,3 5,2 11 6 16 9 NNO 1018,1 5 1 0,0
20.02.2018 15:00:00 3,5 -1,7 5,0 4,6 2,0 5,2 11 6 16 9 N 1018,3 5 6 0,0
20.02.2018 14:00:00 3,4 -1,8 5,1 4,2 1,8 5,2 8 5 16 9 N 1018,2 6 3 0,0
20.02.2018 13:00:00 3,4 -1,8 6,7 3,7 1,7 5,2 9 5 16 9 NO 1018,2 7 39 0,0
20.02.2018 12:00:00 2,4 -2,1 4,7 1,9 1,7 5,2 7 4 13 7 NNO 1018,8 6 15 0,0
20.02.2018 11:00:00 1,9 -2,2 3,5 0,6 1,7 5,2 4 2 11 6 NO 1018,7 7 15 0,0
20.02.2018 10:00:00 0,1 -1,9 0,3 0,6 1,8 5,2 9 5 13 7 O 1018,3 5 11 0,0
20.02.2018 09:00:00 -0,4 -1,8 0,6 0,6 1,8 5,2 8 4 11 6 O 1018,4 4,3 31 0,0
20.02.2018 08:00:00 -1,2 -2,5 -4,0 0,6 1,8 5,2 6 3 8 4 O 1018,4 4,4 0 0,0
20.02.2018 07:00:00 -1,2 -2,2 -2,8 0,6 1,9 5,2 5 3 9 5 ZZO 1018,2 4,7 0 0,0
20.02.2018 06:00:00 -0,8 -2,6 -3,0 0,7 1,9 5,2 5 3 11 6 ONO 1018,0 4,3 0 0,0
20.02.2018 05:00:00 -0,9 -2,5 -3,0 0,7 1,9 5,2 8 5 10 5 NNW 1018,1 6 0 0,0
20.02.2018 04:00:00 0,1 -2,5 -2,6 0,7 2,0 5,2 3 2 8 5 ONO 1017,8 7 0 0,0
20.02.2018 03:00:00 0,0 -1,9 -2,2 0,7 2,0 5,2 6 4 9 5 O 1017,6 7 0 0,0
20.02.2018 02:00:00 0,7 -2,3 -1,4 0,7 2,1 5,2 6 3 9 5 O 1017,3 8 0 0,0
20.02.2018 01:00:00 0,8 -2,3 -0,8 0,9 2,1 5,2 5 3 9 5 O 1018,0 8 0 0,0
20.02.2018 00:00:00 0,9 -2,5 -0,8 1,0 2,2 5,2 6 3 9 5 ONO 1017,8 9 0 0,0
19.02.2018 23:00:00 1,2 -2,7 -0,7 1,2 2,2 5,2 4 2 9 5 ONO 1017,7 9 0 0,0
19.02.2018 22:00:00 0,8 -2,0 -0,7 1,4 2,2 5,2 8 4 10 5 O 1018,1 8 0 0,0
19.02.2018 21:00:00 1,4 -1,8 -0,8 1,7 2,2 5,2 4 2 8 4 O 1018,2 9 0 0,0
19.02.2018 20:00:00 1,7 -2,0 0,2 2,0 2,2 5,2 4 2 7 4 ONO 1018,2 11 0 0,0
19.02.2018 19:00:00 1,7 -1,1 0,2 2,4 2,1 5,2 0 0 6 4 N 1018,2 10 0 0,0
19.02.2018 18:00:00 2,3 -1,9 1,3 2,9 1,9 5,2 6 4 9 5 WZW 1018,1 11 0 0,0
19.02.2018 17:00:00 3,0 -2,4 3,1 3,2 1,8 5,2 7 4 14 8 WZW 1018,1 13 0 0,0
19.02.2018 16:00:00 3,2 -2,6 4,5 3,0 1,7 5,2 8 5 14 8 W 1018,5 13 22 0,0
19.02.2018 15:00:00 3,5 -2,7 6,1 0,9 1,7 5,2 3 2 9 5 Z 1018,8 12 23 0,0
19.02.2018 14:00:00 2,2 -3,0 3,0 0,4 1,8 5,2 6 3 10 5 ZW 1019,5 12 0 0,0
19.02.2018 13:00:00 1,6 -2,7 2,2 0,4 1,8 5,2 6 3 11 6 WZW 1019,8 10 0 0,0
19.02.2018 12:00:00 1,1 -2,3 1,7 0,4 1,9 5,2 7 4 9 5 WZW 1020,2 10 0 0,0
19.02.2018 11:00:00 0,3 -3,1 0,6 0,4 1,9 5,2 4 2 9 5 W 1020,6 9 0 0,0
19.02.2018 10:00:00 -0,1 -3,0 -0,1 0,4 2,0 5,2 5 3 8 4 Z 1020,8 11 0 0,0
19.02.2018 09:00:00 -1,1 -3,8 -1,8 0,4 2,0 5,2 6 4 9 5 ZZW 1021,0 10 0 0,0
19.02.2018 08:00:00 -1,4 -3,5 -2,5 0,5 2,1 5,2 4 2 6 4 Z 1021,5 9 0 0,0
19.02.2018 07:00:00 -1,4 -3,3 -2,6 0,5 2,1 5,2 5 3 11 6 ZW 1021,4 8 0 0,0
19.02.2018 06:00:00 -1,3 -3,6 -2,6 0,6 2,2 5,2 7 4 11 6 WZW 1021,6 8 0 0,0
19.02.2018 05:00:00 -1,9 -3,2 -3,2 0,6 2,3 5,2 9 5 10 5 ZW 1022,2 7 0 0,0
19.02.2018 04:00:00 -0,9 -3,5 -6,3 0,7 2,4 5,2 4 2 13 7 ZO 1022,3 10 0 0,0
19.02.2018 03:00:00 -1,5 -3,3 -4,0 0,9 2,5 5,2 10 5 13 7 OZO 1022,8 8 0 0,0
19.02.2018 02:00:00 -1,1 -3,1 -5,5 1,0 2,5 5,2 6 3 8 4 O 1023,4 8 0 0,0
19.02.2018 01:00:00 -0,5 -3,0 -4,9 1,1 2,6 5,2 5 3 10 5 Z 1024,1 7 0 0,0
19.02.2018 00:00:00 0,1 -2,7 -2,7 1,2 2,8 5,2 9 5 11 6 ZZW 1024,2 8 0 0,0
18.02.2018 23:00:00 -0,1 -2,9 -4,3 1,4 2,9 5,2 7 4 8 4 ZO 1024,3 12 0 0,0
18.02.2018 22:00:00 1,4 -3,0 -4,5 1,6 3,0 5,2 5 3 10 5 ZZW 1024,7 14 0 0,0
18.02.2018 21:00:00 1,2 -2,8 -2,5 1,9 3,0 5,2 10 5 18 10 Z 1024,9 16 0 0,0
18.02.2018 20:00:00 1,8 -3,1 -1,6 2,4 3,1 5,2 11 6 16 9 ZZW 1025,1 18 0 0,0
18.02.2018 19:00:00 2,3 -2,9 -0,3 3,5 3,0 5,2 14 7 18 10 Z 1025,1 17 0 0,0
18.02.2018 18:00:00 3,8 -2,8 0,4 5,1 2,7 5,2 9 5 14 8 Z 1024,8 17 36 0,0
18.02.2018 17:00:00 5,6 1,2 5,9 5,9 2,4 5,2 6 3 13 7 ONO 1024,9 13 8 0,0
18.02.2018 16:00:00 6,6 -0,2 6,9 6,4 2,1 5,2 5 3 11 6 WZW 1024,9 18 48 0,0
18.02.2018 15:00:00 6,6 -0,5 8,6 5,9 1,8 5,2 4 2 14 8 WZW 1025,3 14 60 0,0
18.02.2018 14:00:00 6,0 -0,4 8,3 4,6 1,7 5,2 5 3 12 6 ZW 1025,9 16 52 0,0
18.02.2018 13:00:00 5,4 0,0 7,0 2,5 1,6 5,2 11 6 24 13 ZZW 1026,5 14 60 0,0
18.02.2018 12:00:00 4,8 0,1 5,6 0,4 1,7 5,2 14 8 24 13 ZW 1026,9 15 60 0,0
18.02.2018 11:00:00 3,7 -0,8 3,9 0,4 1,7 5,2 13 7 27 15 ZZW 1026,8 13 60 0,0
18.02.2018 10:00:00 2,8 -1,0 2,4 0,4 1,8 5,2 18 10 27 14 ZZW 1026,4 15 60 0,0
18.02.2018 09:00:00 1,9 -1,6 1,0 0,4 1,8 5,2 16 9 22 12 Z 1026,5 14 31 0,0
18.02.2018 08:00:00 0,7 -2,2 -0,7 0,4 1,8 5,2 17 9 26 14 ZZW 1026,6 14 0 0,0
18.02.2018 07:00:00 0,8 -2,3 -0,7 0,4 1,9 5,2 18 10 24 13 ZZW 1026,5 15 0 0,0
18.02.2018 06:00:00 1,1 -2,3 -0,4 0,5 1,9 5,2 18 10 27 14 ZZW 1026,5 16 0 0,0
18.02.2018 05:00:00 1,3 -2,3 -0,4 0,5 2,0 5,2 19 10 28 15 Z 1026,0 17 0 0,0
18.02.2018 04:00:00 1,4 -2,5 -0,5 0,6 2,0 5,2 19 10 28 15 Z 1026,2 19 0 0,0
18.02.2018 03:00:00 0,9 -3,1 -1,3 0,7 2,1 5,2 15 8 21 11 Z 1026,3 24 0 0,0
18.02.2018 02:00:00 -0,9 -3,6 -4,9 0,7 2,2 5,2 7 4 16 8 Z 1026,5 20 0 0,0
18.02.2018 01:00:00 0,2 -3,3 -2,5 0,8 2,2 5,2 13 7 17 9 ZZO 1026,2 24 0 0,0
18.02.2018 00:00:00 -0,4 -2,6 -2,9 0,8 2,3 5,2 11 6 18 10 OZO 1026,2 12 0 0,0
17.02.2018 23:00:00 -0,2 -2,0 -2,8 0,9 2,4 5,2 11 6 16 9 OZO 1026,0 9 0 0,0
17.02.2018 22:00:00 0,0 -1,7 -2,3 1,1 2,4 5,2 12 7 16 9 OZO 1025,5 8 0 0,0
17.02.2018 21:00:00 0,6 -1,4 -1,6 1,2 2,5 5,2 11 6 18 10 OZO 1025,1 9 0 0,0
17.02.2018 20:00:00 0,9 -0,9 -1,1 1,5 2,6 5,2 13 7 17 9 OZO 1024,9 8 0 0,0
17.02.2018 19:00:00 1,1 -1,4 -1,7 1,9 2,5 5,2 13 7 18 10 O 1024,6 13 0 0,0
17.02.2018 18:00:00 2,1 -0,8 -0,2 3,0 2,4 5,2 14 8 23 12 ONO 1023,6 13 41 0,0
17.02.2018 17:00:00 3,3 -0,2 3,5 3,8 2,2 5,2 18 10 24 13 ONO 1022,9 14 60 0,0
17.02.2018 16:00:00 3,9 0,4 5,6 4,0 2,0 5,2 16 9 22 12 ONO 1022,3 13 25 0,0
17.02.2018 15:00:00 3,4 -0,2 5,2 3,7 1,9 5,2 15 8 19 11 ONO 1022,3 15 17 0,0
17.02.2018 14:00:00 3,2 -0,5 6,4 2,7 1,9 5,2 13 7 20 11 ONO 1022,5 13 38 0,0
17.02.2018 13:00:00 2,7 -0,6 6,1 0,9 1,9 5,2 14 7 19 11 ONO 1022,4 13 45 0,0
17.02.2018 12:00:00 1,5 -0,7 2,4 0,6 1,9 5,2 11 6 19 10 ONO 1022,4 11 0 0,0
17.02.2018 11:00:00 0,9 -0,8 1,0 0,7 2,0 5,2 10 5 15 8 O 1022,1 12 0 0,0
17.02.2018 10:00:00 0,4 -1,0 0,1 0,7 2,0 5,2 12 7 21 12 ONO 1022,0 13 0 0,0
17.02.2018 09:00:00 -0,1 -1,2 -0,5 0,7 2,1 5,2 20 11 25 13 O 1022,2 11 0 0,0
17.02.2018 08:00:00 -0,1 -1,5 -0,8 0,7 2,1 5,2 14 8 19 11 O 1022,0 18 0 0,0
17.02.2018 07:00:00 0,4 -1,3 -0,5 0,7 2,2 5,2 16 9 20 11 O 1022,5 23 0 0,0
17.02.2018 06:00:00 0,5 -1,3 -0,5 0,8 2,2 5,2 16 9 20 11 O 1022,8 25 0 0,0
17.02.2018 05:00:00 0,4 -1,6 -0,8 0,8 2,3 5,2 15 8 20 11 O 1023,3 26 0 0,0
17.02.2018 04:00:00 0,1 -1,8 -1,3 0,8 2,4 5,2 12 7 16 9 O 1024,3 26 0 0,0
17.02.2018 03:00:00 0,2 -1,8 -1,3 0,9 2,4 5,2 15 8 19 10 O 1024,7 25 0 0,0
17.02.2018 02:00:00 0,8 -1,5 -1,1 1,0 2,5 5,2 15 8 19 11 OZO 1024,9 23 0 0,0
17.02.2018 01:00:00 -1,1 -2,5 -3,4 1,0 2,6 5,2 8 5 14 8 OZO 1026,3 18 0 0,0
17.02.2018 00:00:00 0,7 -1,5 -3,5 1,1 2,8 5,2 9 5 13 7 OZO 1026,6 26 0 0,0
16.02.2018 23:00:00 0,3 -1,6 -3,2 1,3 2,9 5,2 7 4 10 5 O 1026,8 22 0 0,0
16.02.2018 22:00:00 1,4 -1,8 -2,4 1,5 3,0 5,2 10 5 10 5 ZZO 1027,6 40 0 0,0
16.02.2018 21:00:00 1,5 -1,8 -3,6 1,8 3,1 5,2 4 2 8 4 ZO 1027,2 41 0 0,0
16.02.2018 20:00:00 2,5 -1,7 -4,1 2,2 3,2 5,2 0 0 7 4 N 1027,2 43 0 0,0
16.02.2018 19:00:00 2,6 -1,4 -2,6 3,3 3,1 5,2 4 2 8 4 Z 1027,2 35 0 0,0
16.02.2018 18:00:00 4,2 -1,8 0,4 4,6 3,0 5,2 7 4 16 9 W 1027,4 47 30 0,0
16.02.2018 17:00:00 5,4 -0,1 4,9 5,8 2,7 5,2 11 6 19 10 W 1026,9 44 60 0,0
16.02.2018 16:00:00 6,4 -0,8 7,6 6,4 2,4 5,2 12 6 22 12 WZW 1026,8 43 60 0,0
16.02.2018 15:00:00 6,6 0,0 8,3 6,4 2,1 5,2 13 7 23 12 WZW 1027,0 34 58 0,0
16.02.2018 14:00:00 6,0 0,3 8,2 5,2 1,9 5,2 16 8 23 12 WNW 1027,4 24 48 0,0
16.02.2018 13:00:00 5,3 1,0 6,8 4,4 1,8 5,2 17 9 25 13 W 1027,4 32 53 0,0
16.02.2018 12:00:00 4,4 1,9 5,2 2,2 1,7 5,2 13 7 19 10 WZW 1027,4 19 21 0,0
16.02.2018 11:00:00 3,7 1,8 3,4 1,2 1,8 5,2 14 7 20 11 WZW 1027,1 16 56 0,0
16.02.2018 10:00:00 2,8 1,1 2,7 0,6 1,8 5,2 12 7 21 11 WZW 1026,5 18 60 0,0
16.02.2018 09:00:00 1,3 0,2 0,6 0,6 1,9 5,3 16 8 22 12 ZW 1025,7 16 25 0,0
16.02.2018 08:00:00 1,2 -0,1 -0,3 0,6 1,9 5,3 14 8 19 10 ZW 1025,0 15 0 0,0
16.02.2018 07:00:00 1,4 0,3 -0,3 0,7 2,0 5,3 13 7 20 11 ZW 1024,3 15 0 0,0
16.02.2018 06:00:00 1,5 0,5 -0,1 0,7 2,0 5,3 14 8 22 12 ZW 1023,6 16 0 0,0
16.02.2018 05:00:00 1,9 1,4 0,4 0,8 2,1 5,3 15 8 25 13 WZW 1023,0 10 0 0,0
16.02.2018 04:00:00 2,4 1,6 0,9 0,8 2,2 5,3 16 9 22 12 WZW 1022,3 13 0 0,0
16.02.2018 03:00:00 2,8 2,0 1,2 0,9 2,3 5,3 14 8 23 12 WZW 1021,6 13 0 0,0
16.02.2018 02:00:00 2,4 1,9 0,6 1,0 2,4 5,3 12 7 18 10 WZW 1021,2 9 0 0,0
16.02.2018 01:00:00 2,2 0,6 -0,5 1,1 2,5 5,3 10 6 17 9 WZW 1020,3 24 0 0,0
16.02.2018 00:00:00 3,4 2,2 1,1 1,6 2,5 5,3 13 7 19 10 WZW 1019,6 19 0 0,0
15.02.2018 23:00:00 3,3 3,2 0,8 2,2 2,6 5,3 10 5 15 8 WZW 1018,9 4,9 0 0,0
15.02.2018 22:00:00 3,7 2,3 1,2 3,0 2,5 5,3 13 7 21 12 W 1018,2 21 0 0,0
15.02.2018 21:00:00 5,5 3,6 4,1 3,8 2,4 5,3 17 9 28 15 W 1017,2 21 0 0,4
15.02.2018 20:00:00 6,2 6,1 5,7 3,9 2,3 5,3 14 7 31 17 W 1016,4 2,5 0 0,7
15.02.2018 19:00:00 6,5 6,0 5,7 3,9 2,1 5,3 22 12 32 18 ZW 1015,1 12 0 0,0
15.02.2018 18:00:00 6,9 6,2 6,4 4,1 1,9 5,3 22 12 30 16 ZZW 1014,4 16 0 0,0
15.02.2018 17:00:00 7,0 6,4 6,6 4,1 1,7 5,3 17 9 29 16 ZW 1013,9 12 0 0,0
15.02.2018 16:00:00 7,1 6,4 6,8 3,8 1,6 5,3 21 11 29 16 ZW 1013,2 12 0 0,0
15.02.2018 15:00:00 6,6 6,1 6,3 3,4 1,4 5,3 22 12 37 20 ZW 1012,6 12 0 0,0
15.02.2018 14:00:00 5,7 5,2 5,2 3,0 1,2 5,3 22 12 37 20 ZW 1012,1 14 0 0,1

tt = temperatuur
td = dauwpunt
tt 5cm = temperatuur 5cm
tt -5cm = temperatuur -5cm
tt -20cm = temperatuur -20cm
tt -100cm = temperatuur -100cm
ff = windsnelheid
fx = windstoten
dd = windrichting
ppp = luchtdruk
vv = zicht
sd = Zonneschijnduur
rr = neerslag

Weerstations in de omgeving